Regional Weather Roundup
Issued by NWS

Home | Current Version | Previous Version | Graphics & Text | Print | Product List | Glossary On
Versions: 1 2 3 4 5 6 7 8 9 10 11 12 13 14 15 16 17 18 19 20 21 22 23 24 25 26 27 28 29 30 31 32 33 34 35 36 37 38 39 40 41 42 43 44 45 46 47 48 49 50
508
ASUS45 KBOU 230407
RWRCO

WEATHER ROUNDUP FOR COLORADO
NATIONAL WEATHER SERVICE DENVER/BOULDER CO
1000 PM MDT FRI SEP 22 2017

NOTE: "FAIR" INDICATES FEW OR NO CLOUDS BELOW 12000 FEET WITH NO
SIGNIFICANT WEATHER AND/OR OBSTRUCTIONS TO VISIBILITY.

COZ001>005-013-030-031-230500-
...NORTHWEST COLORADO...

CITY           SKY/WX    TMP DP  RH WIND       PRES   REMARKS
CRAIG          MOCLDY    58  33  39 S12       29.88F
HAYDEN         LGT RAIN  53  35  50 VRB6G16   29.93R
MEEKER         CLOUDY    59  35  40 S9G17     29.89R
RABBIT EARS PA MOCLDY    41  32  70 SW9       30.12F
STEAMBOAT SPGS CLOUDY    49  39  69 E3        29.94S
WALDEN         CLOUDY    46  37  71 SE7       30.02S
$$

COZ006>008-011-230500-
...WEST CENTRAL VALLEYS...

CITY           SKY/WX    TMP DP  RH WIND       PRES   REMARKS
GRAND JUNCTION FAIR      69  31  24 S10       29.77S
MONTROSE       MOCLDY    60  42  51 SE5       29.86S
EAGLE          MOCLDY    52  40  63 E6        29.95R
RIFLE          MOCLDY    61  41  47 S7        29.84S
DELTA          NOT AVBL
NUCLA          FAIR      63  27  25 S6        29.89S
$$

COZ017>023-064>068-230500-
...SOUTHWEST COLORADO...

CITY           SKY/WX    TMP DP  RH WIND       PRES   REMARKS
DURANGO        FAIR      54  26  34 E5        29.94R
CORTEZ         FAIR      57  30  35 S7        29.88R
PAGOSA SPRINGS MOCLDY    54  42  62 NE6       30.04F
TELLURIDE      MOCLDY    56  26  31 SE9G16    30.07R
WOLF CREEK PAS TSTM      32  32 100 S17G37    30.30R VSB 1   WCI  21
$$

COZ009-010-012-014-032>034-037-058>063-230500-
...CENTRAL COLORADO...

CITY           SKY/WX    TMP DP  RH WIND       PRES   REMARKS
ASPEN          FAIR      46  39  76 S6        29.97S
BUENA VISTA    FAIR      54  36  50 E6        30.01F
COPPER MTN     FAIR      46  23  39 S18G32    30.22R
BERTHOUD PASS  MOCLDY    36  28  75 S31G37    30.27R
COTTONWOOD PAS FAIR      54  36  50 SE8       30.11F
GUNNISON       FAIR      49  35  58 N13G21    29.98F
KREMMLING      FAIR      54  39  58 CALM      29.98F
LEADVILLE      MOCLDY    49  26  41 SE13G22   30.09S
MONARCH PASS   MOCLDY    37  34  87 S21       30.34F
SALIDA         FAIR      61  37  40 S9G20     30.07S
SUNLIGHT       FAIR      36  32  87 SW12G21   30.14R
WILKERSON PASS CLOUDY    45  28  53 SW13G25   30.23F
$$

COZ069>075-230500-
...SAN LUIS VALLEY/SANGRE DE CRISTO MOUNTAINS...

CITY           SKY/WX    TMP DP  RH WIND       PRES   REMARKS
ALAMOSA        LGT RAIN  52  47  83 N3        30.06R
DEL NORTE      LGT RAIN  51  42  72 SW20      30.08S
LA VETA PASS   FAIR      45  36  70 S17G26    30.29S
SAGUACHE       CLOUDY    52  43  71 SE12      30.09R
$$

COZ035-036-038>040-230500-
...NORTHERN COLORADO FRONT RANGE...

CITY           SKY/WX    TMP DP  RH WIND       PRES   REMARKS
DENVER INTL AP MOCLDY    59  38  45 NW14      29.92S
DMNS CITY PARK   N/A     59  38  45 N10G16    29.96R
AURORA         MOCLDY    57  40  51 NW10      29.96R
FRONT RANGE AP MOCLDY    59  41  51 W12G17    29.96R
ERIE MUNI ARPT FAIR      55  39  54 CALM      30.01R
BOULDER MUN AP FAIR      57  36  44 NE3       29.96R
CENTENNIAL     CLOUDY    59  41  51 NW8       29.97R
BROOMFIELD     MOCLDY    59  37  44 N9        29.97R
FORT COLLINS   FAIR      57  38  48 N14       29.95R
LONGMONT       FAIR      60  37  43 N5        29.96R
$$

COZ041-046-047-076>085-087-088-230500-
...PIKES PEAK/PALMER DIVIDE AND SOUTHERN FOOTHILLS...

CITY           SKY/WX    TMP DP  RH WIND       PRES   REMARKS
COLO. SPRINGS  MOCLDY    71  37  28 W16       29.94R
A. F. ACADEMY  CLOUDY    61  40  45 N9        29.95S
SCHRIEVER AFB  MOCLDY    63  38  40 N7        29.94R
CHEYENNE MTN   MOCLDY    66  34  30 SW12G23   29.91S
ELLICOTT         N/A    N/A N/A N/A N7        29.93R
FALCON         CLOUDY    59  39  47 NW8       29.99S
FORT CARSON    MOCLDY    70  37  29 SW14      29.89R
LIMON            N/A    N/A N/A N/A MISG      29.90R
MONUMENT HILL  CLOUDY    52  41  66 NW12      30.02S
CANON CITY     PTCLDY    70  43  37 W13G18    29.90F
WALSENBURG     FAIR      66  43  42 W20G25    29.92F
TRINIDAD       FAIR      67  39  35 S12       29.91R
$$

COZ042>045-048>051-090-091-230500-
...NORTHEAST COLORADO...

CITY           SKY/WX    TMP DP  RH WIND       PRES   REMARKS
GREELEY ARPT   FAIR      58  39  49 N8        29.93R
AKRON          FAIR      64  45  49 NE18G25   29.85R
BURLINGTON     FAIR      76  58  53 S23G36    29.84R
WRAY           FAIR      79  54  41 S18G25    29.77R
YUMA           FAIR      64  34  32 N8        29.80R
STERLING       FAIR      61  46  59 NE20      29.84S
HOLYOKE        FAIR      63  50  63 NE13G21   29.82S
FORT MORGAN    FAIR      62  41  47 NE18G24   29.87R
$$

COZ086-089-092>099-230500-
...SOUTHEAST COLORADO...

CITY           SKY/WX    TMP DP  RH WIND       PRES   REMARKS
PUEBLO         FAIR      73  39  29 W13       29.82R
LA JUNTA       FAIR      78  60  53 S24       29.81R
LAMAR          FAIR      76  60  57 S23G33    29.78S
SPRINGFIELD      N/A     69  62  78 S17       29.89S
$$




USA.gov is the U.S. government's official web portal to all federal, state and local government web resources and services.